Preview of NWS' New Version of Forecast
This preview is not operational and should not be used for support decisions.

Regional Weather Roundup (RWR)

Issued by National Weather Service (NWS)

                            
000
ASUS46 KPQR 190410
RWROR 

OREGON REGIONAL WEATHER ROUNDUP
NATIONAL WEATHER SERVICE PORTLAND OR
900 PM PDT THU APR 18 2019

NOTE: "FAIR" INDICATES FEW OR NO CLOUDS BELOW 12,000 FEET WITH
NO SIGNIFICANT WEATHER AND/OR OBSTRUCTIONS TO VISIBILITY.

ORZ001>013-190500-
NORTHWEST OREGON

  
CITY           SKY/WX    TMP DP  RH WIND       PRES   REMARKS
ASTORIA        CLOUDY    54  51  90 CALM      30.12R                  
TILLAMOOK      CLOUDY    55  52  88 NW3       30.14R                  
NEWPORT        MOCLDY    52  50  93 N3        30.15S                  
PORTLAND       MOCLDY    67  51  56 N7        30.06R                  
VANCOUVER WA   PTCLDY    66  51  58 N7        30.05R                  
SCAPPOOSE      PTCLDY    64  51  62 N8        30.07R                  
HILLSBORO      PTCLDY    63  53  70 NW6       30.06R                  
AURORA         MOCLDY    68  57  68 CALM      30.06S                  
MCMINNVILLE    MOCLDY    65  50  58 W6        30.06R                  
SALEM          MOCLDY    65  44  46 NW9       30.06R                  
CORVALLIS      CLEAR     64  50  60 NW14      30.07R                  
EUGENE         PTCLDY    63  56  78 N7        30.06R                  
$$

ORZ021-028-190500-
SOUTHWEST OREGON

  
CITY           SKY/WX    TMP DP  RH WIND       PRES   REMARKS
NORTH BEND     CLEAR     55  52  89 NW8       30.14R                  
BROOKINGS      CLEAR     55  53  93 E3        30.07R                  
ROSEBURG       CLEAR     75  51  43 N10G23    30.04R                  
SEXTON SUMMIT  CLEAR     61  46  57 N9        30.15R                  
GRANTS PASS    FAIR      73  50  43 NW5       30.05R                  
MEDFORD        CLEAR     71  49  45 S3        30.03R                  
$$

ORZ014>016-041-190500-
COLUMBIA GORGE

  
CITY           SKY/WX    TMP DP  RH WIND       PRES   REMARKS
TROUTDALE      PTCLDY    65  53  65 CALM      30.05R                  
HOOD RIVER     PTCLDY    68  48  49 MISG      30.05R                  
THE DALLES     PTCLDY    71  49  45 VRB5      30.01R                  
$$

ORZ029>031-041-044-049-050-061>064-502-503-505>511-190500-
EASTERN OREGON

  
CITY           SKY/WX    TMP DP  RH WIND       PRES   REMARKS
MADRAS         CLEAR     59  48  67 NW8       30.10R                  
REDMOND        CLEAR     68  44  42 NW8       30.09S                  
BEND           CLEAR     64  43  45 NW5       30.11R                  
PRINEVILLE     CLEAR     64  43  45 CALM      30.10S                  
KLAMATH FALLS  CLEAR     58  41  53 CALM      30.14R                  
LAKEVIEW       CLEAR     52  44  74 N8        30.19R                  
HERMISTON      PTCLDY    69  51  52 W3        30.00S                  
PENDLETON      CLEAR     62  51  67 E10       30.03S                  
JOHN DAY       CLEAR     64  43  47 SE9       30.14S                  
MEACHAM        PTCLDY    51  44  77 CALM      30.14S                  
LA GRANDE      MOCLDY    65  46  50 SE13      30.12R                  
BAKER CITY     PTCLDY    55  31  39 SE6       30.16S                  
BURNS          CLEAR     55  45  68 NE9       30.17S                  
ROME             N/A     60  42  51 E10       30.17R                  
ONTARIO        CLEAR     62  44  51 NW5       30.16R                  
$$